Location: Corcelles
(46.1547°N, 4.7234°E)
Time: 03:47:19
(UTC+00:00)

Meteor 1-11 Rocket - Pass Details

Date: 14 July 2020
Orbit: 831 x 915 km, 81.2° (Epoch: 06 August)

Event Time Altitude Azimuth Distance (km) Brightness Sun altitude
Exits shadow 02:04:16 21° 191° (S) 1,779 4.8 -15.4°
Maximum altitude 02:08:03 88° 279° (W) 839 3.6 -15.1°
Drops below altitude 10° 02:13:36 10° 11° (N) 2,453 7.2 -14.5°
Sets 02:16:02 0° 11° (NNE) 3,395 8.1 -14.3°
